This is the latest recevied weather packets stored in our database for station/object KC4LZN. If no packets are shown the sender has not sent any weather packets the latest 10 day(s).
| Time | Temp. | Humidity | Pressure | Rain* | Wind** | Luminosity | Snow |
|---|---|---|---|---|---|---|---|
| 1777897141 | 20.56° C | 72% | 1018.1 hPa | 0 mm | - | 190 W/m² | - |
| 1777896837 | 20.56° C | 72% | 1018.1 hPa | 0 mm | - | 172 W/m² | - |
| 1777896535 | 20.56° C | 72% | 1017.7 hPa | 0 mm | - | 155 W/m² | - |
| 1777896232 | 20.56° C | 72% | 1017.6 hPa | 0 mm | - | 140 W/m² | - |
| 1777895930 | 20° C | 72% | 1017.6 hPa | 0 mm | - | 125 W/m² | - |
| 1777895627 | 20° C | 73% | 1017.9 hPa | 0 mm | - | 111 W/m² | - |
| 1777895325 | 20° C | 74% | 1018 hPa | 0 mm | - | 98 W/m² | - |
| 1777895023 | 19.44° C | 74% | 1017.7 hPa | 0 mm | - | 85 W/m² | - |
| 1777894719 | 19.44° C | 74% | 1017.6 hPa | 0 mm | - | 73 W/m² | - |
| 1777894416 | 18.89° C | 75% | 1017.6 hPa | 0 mm | - | 64 W/m² | - |
| 1777894114 | 18.89° C | 76% | 1017.6 hPa | 0 mm | - | 54 W/m² | - |
| 1777893811 | 18.89° C | 77% | 1017.7 hPa | 0 mm | - | 45 W/m² | - |
| 1777893507 | 18.33° C | 78% | 1017.5 hPa | 0 mm | - | 36 W/m² | - |
| 1777893203 | 17.78° C | 79% | 1017.5 hPa | 0 mm | - | 25 W/m² | - |
| 1777892900 | 17.78° C | 79% | 1017.4 hPa | 0 mm | - | 21 W/m² | - |
| 1777892596 | 17.78° C | 79% | 1017.4 hPa | 0 mm | - | 17 W/m² | - |
| 1777892292 | 17.78° C | 78% | 1017.2 hPa | 0 mm | - | 13 W/m² | - |
| 1777891988 | 17.78° C | 79% | 1017.3 hPa | 0 mm | - | 9 W/m² | - |
| 1777891687 | 17.78° C | 79% | 1017.2 hPa | 0 mm | - | 6 W/m² | - |
| 1777891383 | 17.78° C | 79% | 1017.2 hPa | 0 mm | - | 3 W/m² | - |
| 1777891078 | 17.22° C | 79% | 1017.2 hPa | 0 mm | - | 2 W/m² | - |
| 1777890772 | 17.78° C | 79% | 1017.1 hPa | 0 mm | - | 1 W/m² | - |
| 1777890469 | 17.22° C | 79% | 1017.1 hPa | 0 mm | - | 0 W/m² | - |
| 1777890165 | 17.78° C | 78% | 1017 hPa | 0 mm | - | 0 W/m² | - |
| 1777889862 | 17.78° C | 78% | 1017.1 hPa | 0 mm | - | 0 W/m² | - |
* Rain latest hour (hover to see other rain measurements)
** Current wind speed in m/s (hover to see current wind gust speed)